Location: Владивосток
(43.1151°N, 131.8856°E)
Time: 17:04:32
(UTC+10:00)

CZ-6A DEB - Pass Details

Date: 23 December 2025
Orbit: 721 x 815 km, 98.7° (Epoch: 21 January)

Event Time Altitude Azimuth Distance (km) Brightness Sun altitude
Exits shadow 20:47:01 11° 340° (NNW) 2,181 ? -32.9°
Drops below altitude 10° 20:47:13 10° 341° (NNW) 2,259 ? -32.9°
Sets 20:49:30 0° 344° (NNW) 3,175 ? -33.3°
